Volver al catálogo

GAOFEN 12-05

ActivoCienciaSSO
NORAD 61571·PAYLOAD·🇨🇳 China

Lanzado Oct 15, 2024 desde Jiuquan Satellite Launch Center

Loading…

Próximos Pases (próximas 24 horas)

TLE

ActualizadoSource: Space-Track

Época: Sep 14, 2026, 14:12 UTC

1 61571U 24186A   26257.59171388  .00000258  00000-0  39967-4 0  9998
2 61571  97.9131 264.5590 0001624  57.5655 302.5714 14.81015594102574

Sigue GAOFEN 12-05 en tiempo real con AllMySat

Download on the App Store